TimeMDT,TemperatureF,Dew PointF,Humidity,Sea Level PressureIn,VisibilityMPH,Wind Direction,Wind SpeedMPH,Gust SpeedMPH,PrecipitationIn,Events,Conditions,WindDirDegrees,DateUTC
12:15 AM,44.4,11.3,26,30.15,10.0,NNW,5.8,-,N/A,,Mostly Cloudy,340,2013-05-06 06:15:00
12:35 AM,43.0,11.7,28,30.14,10.0,NNW,5.8,-,N/A,,Mostly Cloudy,340,2013-05-06 06:35:00
12:55 AM,43.9,12.0,27,30.14,10.0,North,4.6,-,N/A,,Mostly Cloudy,360,2013-05-06 06:55:00
1:15 AM,43.2,11.8,28,30.13,10.0,North,3.5,-,N/A,,Mostly Cloudy,10,2013-05-06 07:15:00
1:35 AM,44.6,12.2,27,30.12,10.0,NE,3.5,-,N/A,,Mostly Cloudy,40,2013-05-06 07:35:00
1:55 AM,44.8,12.9,28,30.12,10.0,Calm,Calm,-,N/A,,Overcast,0,2013-05-06 07:55:00
2:15 AM,51.3,16.5,25,30.12,10.0,SSE,8.1,-,N/A,,Overcast,150,2013-05-06 08:15:00
2:35 AM,52.0,17.1,25,30.11,10.0,SE,10.4,-,N/A,,Mostly Cloudy,130,2013-05-06 08:35:00
2:55 AM,50.9,17.2,26,30.10,10.0,SE,12.7,-,N/A,,Mostly Cloudy,130,2013-05-06 08:55:00
3:15 AM,50.9,17.8,27,30.11,10.0,SE,11.5,-,N/A,,Overcast,140,2013-05-06 09:15:00
3:35 AM,50.5,18.1,28,30.11,10.0,SE,16.1,-,N/A,,Mostly Cloudy,130,2013-05-06 09:35:00
3:55 AM,50.2,18.3,28,30.10,10.0,SE,13.8,-,N/A,,Mostly Cloudy,130,2013-05-06 09:55:00
4:15 AM,50.2,18.5,29,30.10,10.0,ESE,11.5,-,N/A,,Scattered Clouds,120,2013-05-06 10:15:00
4:55 AM,50.0,18.9,29,30.08,10.0,SE,10.4,-,N/A,,Scattered Clouds,130,2013-05-06 10:55:00
5:15 AM,50.0,18.9,29,30.08,10.0,ESE,9.2,-,N/A,,Scattered Clouds,120,2013-05-06 11:15:00
5:35 AM,50.2,18.5,29,30.08,10.0,ESE,9.2,-,N/A,,Mostly Cloudy,120,2013-05-06 11:35:00
5:55 AM,50.5,18.5,28,30.09,10.0,ESE,9.2,-,N/A,,Mostly Cloudy,120,2013-05-06 11:55:00
6:15 AM,51.1,19.2,29,30.10,10.0,ESE,10.4,-,N/A,,Overcast,110,2013-05-06 12:15:00
6:35 AM,50.7,20.3,30,30.08,10.0,East,11.5,-,N/A,,Overcast,90,2013-05-06 12:35:00
6:55 AM,50.7,19.9,30,30.10,10.0,East,6.9,-,N/A,,Overcast,90,2013-05-06 12:55:00
7:15 AM,50.9,20.1,30,30.10,10.0,East,8.1,-,N/A,,Mostly Cloudy,80,2013-05-06 13:15:00
7:35 AM,51.6,20.3,29,30.10,10.0,ESE,11.5,-,N/A,,Clear,110,2013-05-06 13:35:00
7:55 AM,53.6,20.7,28,30.10,10.0,SE,6.9,-,N/A,,Clear,140,2013-05-06 13:55:00
8:15 AM,55.0,21.2,27,30.10,10.0,SE,13.8,-,N/A,,Scattered Clouds,130,2013-05-06 14:15:00
8:35 AM,55.4,21.7,27,30.11,10.0,SSE,13.8,-,N/A,,Scattered Clouds,150,2013-05-06 14:35:00
8:55 AM,56.5,21.7,26,30.11,10.0,SSE,16.1,-,N/A,,Scattered Clouds,150,2013-05-06 14:55:00
9:15 AM,58.3,21.9,25,30.11,10.0,SSE,13.8,-,N/A,,Scattered Clouds,160,2013-05-06 15:15:00
9:35 AM,58.6,21.7,24,30.11,10.0,SSE,12.7,-,N/A,,Scattered Clouds,150,2013-05-06 15:35:00
9:55 AM,59.5,25.7,27,30.11,10.0,SSW,17.3,25.3,N/A,,Mostly Cloudy,200,2013-05-06 15:55:00
10:15 AM,56.8,34.9,44,30.12,10.0,SSW,25.3,33.4,N/A,,Overcast,200,2013-05-06 16:15:00
10:35 AM,54.3,37.4,53,30.12,10.0,South,16.1,-,N/A,,Overcast,180,2013-05-06 16:35:00
10:55 AM,56.7,37.8,49,30.12,10.0,South,17.3,-,N/A,,Scattered Clouds,190,2013-05-06 16:55:00
11:15 AM,58.5,38.3,47,30.11,10.0,South,15.0,19.6,N/A,,Clear,170,2013-05-06 17:15:00
11:35 AM,56.1,39.0,53,30.10,10.0,SSE,25.3,-,N/A,Rain,Rain,160,2013-05-06 17:35:00
11:55 AM,51.3,38.5,62,30.10,10.0,SE,11.5,19.6,N/A,,Light Drizzle,130,2013-05-06 17:55:00
12:15 PM,57.0,36.0,45,30.10,10.0,SE,13.8,-,N/A,,Scattered Clouds,140,2013-05-06 18:15:00
12:35 PM,61.5,35.2,37,30.08,10.0,South,15.0,19.6,N/A,,Mostly Cloudy,190,2013-05-06 18:35:00
12:55 PM,63.5,31.8,31,30.07,10.0,WSW,21.9,-,N/A,,Mostly Cloudy,250,2013-05-06 18:55:00
1:15 PM,66.9,28.6,24,30.08,10.0,West,16.1,27.6,N/A,,Scattered Clouds,260,2013-05-06 19:15:00
1:35 PM,64.0,29.1,27,30.08,10.0,WSW,24.2,32.2,N/A,,Scattered Clouds,240,2013-05-06 19:35:00
1:55 PM,59.4,33.3,37,30.10,10.0,SW,23.0,27.6,N/A,,Mostly Cloudy,230,2013-05-06 19:55:00
2:15 PM,61.2,33.1,35,30.08,10.0,SW,16.1,21.9,N/A,,Mostly Cloudy,230,2013-05-06 20:15:00
2:35 PM,64.2,30.0,28,30.07,10.0,SW,20.7,26.5,N/A,,Scattered Clouds,220,2013-05-06 20:35:00
2:55 PM,66.0,30.4,26,30.07,10.0,SW,16.1,27.6,N/A,,Scattered Clouds,230,2013-05-06 20:55:00
3:15 PM,64.8,30.9,28,30.06,10.0,SW,18.4,23.0,N/A,,Mostly Cloudy,230,2013-05-06 21:15:00
3:35 PM,65.8,30.0,26,30.06,10.0,WSW,17.3,25.3,N/A,,Mostly Cloudy,250,2013-05-06 21:35:00
3:55 PM,66.9,27.3,23,30.05,10.0,WSW,16.1,26.5,N/A,,Overcast,240,2013-05-06 21:55:00
4:15 PM,67.5,26.8,22,30.05,10.0,WSW,18.4,27.6,N/A,,Mostly Cloudy,240,2013-05-06 22:15:00
4:35 PM,67.6,26.2,21,30.06,10.0,WSW,18.4,26.5,N/A,,Scattered Clouds,250,2013-05-06 22:35:00
4:55 PM,67.8,25.9,21,30.05,10.0,West,21.9,27.6,N/A,,Clear,260,2013-05-06 22:55:00
5:15 PM,66.9,26.8,22,30.05,10.0,WSW,16.1,23.0,N/A,,Scattered Clouds,240,2013-05-06 23:15:00
5:35 PM,66.7,27.3,23,30.05,10.0,West,11.5,21.9,N/A,,Scattered Clouds,260,2013-05-06 23:35:00
5:55 PM,65.7,26.6,23,30.05,10.0,West,13.8,-,N/A,,Mostly Cloudy,260,2013-05-06 23:55:00
6:15 PM,65.3,27.3,24,30.05,10.0,WSW,4.6,-,N/A,,Mostly Cloudy,240,2013-05-07 00:15:00
6:55 PM,64.8,26.6,24,30.05,10.0,WSW,8.1,-,N/A,,Mostly Cloudy,250,2013-05-07 00:55:00
7:15 PM,63.5,26.4,25,30.06,10.0,West,6.9,-,N/A,,Mostly Cloudy,260,2013-05-07 01:15:00
7:35 PM,61.3,26.2,26,30.06,10.0,SW,6.9,-,N/A,,Scattered Clouds,220,2013-05-07 01:35:00
7:55 PM,58.1,24.8,28,30.07,10.0,SSW,6.9,-,N/A,,Scattered Clouds,200,2013-05-07 01:55:00
8:15 PM,55.4,24.6,30,30.07,10.0,South,5.8,-,N/A,,Scattered Clouds,170,2013-05-07 02:15:00
8:35 PM,56.8,25.7,30,30.08,10.0,South,5.8,-,N/A,,Mostly Cloudy,170,2013-05-07 02:35:00
8:55 PM,55.8,25.7,31,30.08,10.0,South,6.9,-,N/A,,Mostly Cloudy,170,2013-05-07 02:55:00
9:15 PM,55.8,26.2,32,30.08,10.0,SSE,8.1,-,N/A,,Scattered Clouds,160,2013-05-07 03:15:00
9:35 PM,53.8,26.1,34,30.09,10.0,SSE,6.9,-,N/A,,Mostly Cloudy,160,2013-05-07 03:35:00
9:55 PM,52.2,26.1,36,30.10,10.0,Calm,Calm,-,N/A,,Scattered Clouds,0,2013-05-07 03:55:00
10:15 PM,52.7,26.6,36,30.10,10.0,Calm,Calm,-,N/A,,Scattered Clouds,0,2013-05-07 04:15:00
10:35 PM,54.0,27.5,36,30.11,10.0,WSW,6.9,-,N/A,,Overcast,240,2013-05-07 04:35:00
10:55 PM,57.9,31.3,36,30.11,10.0,WNW,12.7,24.2,N/A,,Overcast,290,2013-05-07 04:55:00
11:15 PM,55.4,31.1,40,30.11,10.0,WNW,8.1,-,N/A,,Mostly Cloudy,290,2013-05-07 05:15:00
11:35 PM,55.6,32.0,41,30.11,10.0,West,8.1,-,N/A,,Overcast,270,2013-05-07 05:35:00
11:55 PM,55.4,32.0,41,30.11,10.0,NW,5.8,-,N/A,Rain,Light Rain,310,2013-05-07 05:55:00